Location: Salillas
(41.9950°N, 0.2228°W)
Time: 08:10:03
(UTC+00:00)

Cosmos 1825 Rocket - Pass Details

Date: 29 March 2020
Orbit: 604 x 631 km, 82.5° (Epoch: 03 June)

Event Time Altitude Azimuth Distance (km) Brightness Sun altitude
Rises 20:52:16 0° 350° (N) 2,918 7.6 -26.7°
Reaches altitude 10° 20:54:31 10° 349° (N) 2,003 6.7 -27.0°
Enters shadow 20:57:56 52° 336° (NNW) 780 4.2 -27.5°
